PANSAT - Orbit

View from above orbital plane
View from above orbital plane
View from above satellite
View from above satellite

Ground track
Ground track

The orbit data is extracted from the following two-line orbital elements,

1 25520U 98064B   13143.56653656  .00003311  00000-0  13583-3 0  2540
2 25520 028.4598 337.8920 0004750 149.2132 247.8486 15.21098319807218
Epoch (UTC): 23 May 2013 13:35:48
Eccentricity: 0.0004750
inclination: 28.4598°
perigee height: 499 km
apogee height: 506 km
right ascension of ascending node: 337.8920°
argument of perigee: 149.2132°
revolutions per day: 15.21098319
mean anomaly at epoch: 247.8486°
orbit number at epoch: 80721

The dashed part of the orbit path shows where the satellite is in the earth's shadow,  

Developed and maintained by Chris Peat, Heavens-Above GmbH. Please read the updated FAQ before sending e-mail. Imprint. DLR